Year,Month,Day,Hour,Minute,Value (Times are PST for temperature in C)
2016,06,04,00,00,17.20
2016,06,04,00,01,17.20
2016,06,04,00,02,17.20
2016,06,04,00,03,17.20
2016,06,04,00,04,17.20
2016,06,04,00,05,17.20
2016,06,04,00,06,17.10
2016,06,04,00,07,17.10
2016,06,04,00,08,17.10
2016,06,04,00,09,17.10
2016,06,04,00,10,17.10
2016,06,04,00,11,17.10
2016,06,04,00,12,17.10
2016,06,04,00,13,17.10
2016,06,04,00,14,17.10
2016,06,04,00,15,17.10
2016,06,04,00,16,17.10
2016,06,04,00,17,17.10
2016,06,04,00,18,17.10
2016,06,04,00,19,17.10
2016,06,04,00,20,17.00
2016,06,04,00,21,17.00
2016,06,04,00,22,17.00
2016,06,04,00,23,17.00
2016,06,04,00,24,16.90
2016,06,04,00,25,16.90
2016,06,04,00,26,16.90
2016,06,04,00,27,16.90
2016,06,04,00,28,16.90
2016,06,04,00,29,16.90
2016,06,04,00,30,16.90
2016,06,04,00,31,16.90
2016,06,04,00,32,16.90
2016,06,04,00,33,16.90
2016,06,04,00,34,16.90
2016,06,04,00,35,16.90
2016,06,04,00,36,16.80
2016,06,04,00,37,16.80
2016,06,04,00,38,16.80
2016,06,04,00,39,16.80
2016,06,04,00,40,16.80
2016,06,04,00,41,16.80
2016,06,04,00,42,16.80
2016,06,04,00,43,16.80
2016,06,04,00,44,16.80
2016,06,04,00,45,16.80
2016,06,04,00,46,16.80
2016,06,04,00,47,16.80
2016,06,04,00,48,16.80
2016,06,04,00,49,16.80
2016,06,04,00,50,16.80
2016,06,04,00,51,16.80
2016,06,04,00,52,16.80
2016,06,04,00,53,16.80
2016,06,04,00,54,16.80
2016,06,04,00,55,16.80
2016,06,04,00,56,16.70
2016,06,04,00,57,16.70
2016,06,04,00,58,16.70
2016,06,04,00,59,16.70
2016,06,04,01,00,16.70
2016,06,04,01,01,16.70
2016,06,04,01,02,16.80
2016,06,04,01,03,16.90
2016,06,04,01,04,16.90
2016,06,04,01,05,17.00
2016,06,04,01,06,17.10
2016,06,04,01,07,17.10
2016,06,04,01,08,17.10
2016,06,04,01,09,17.20
2016,06,04,01,10,17.20
2016,06,04,01,11,17.20
2016,06,04,01,12,17.30
2016,06,04,01,13,17.30
2016,06,04,01,14,17.40
2016,06,04,01,15,17.50
2016,06,04,01,16,17.60
2016,06,04,01,17,17.60
2016,06,04,01,18,17.70
2016,06,04,01,19,17.70
2016,06,04,01,20,17.80
2016,06,04,01,21,17.80
2016,06,04,01,22,17.80
2016,06,04,01,23,17.80
2016,06,04,01,24,17.90
2016,06,04,01,25,17.90
2016,06,04,01,26,17.90
2016,06,04,01,27,17.90
2016,06,04,01,28,18.00
2016,06,04,01,29,18.00
2016,06,04,01,30,18.00
2016,06,04,01,31,18.00
2016,06,04,01,32,18.10
2016,06,04,01,33,18.10
2016,06,04,01,34,18.10
2016,06,04,01,35,18.10
2016,06,04,01,36,18.10
2016,06,04,01,37,18.10
2016,06,04,01,38,18.10
2016,06,04,01,39,18.10
2016,06,04,01,40,18.10
2016,06,04,01,41,18.20
2016,06,04,01,42,18.20
2016,06,04,01,43,18.30
2016,06,04,01,44,18.30
2016,06,04,01,45,18.30
2016,06,04,01,46,18.40
2016,06,04,01,47,18.50
2016,06,04,01,48,18.60
2016,06,04,01,49,18.60
2016,06,04,01,50,18.60
2016,06,04,01,51,18.70
2016,06,04,01,52,18.70
2016,06,04,01,53,18.70
2016,06,04,01,54,18.70
2016,06,04,01,55,18.70
2016,06,04,01,56,18.80
2016,06,04,01,57,18.80
2016,06,04,01,58,18.80
2016,06,04,01,59,18.80
2016,06,04,02,00,18.80
2016,06,04,02,01,18.80
2016,06,04,02,02,18.80
2016,06,04,02,03,18.80
2016,06,04,02,04,18.80
2016,06,04,02,05,18.80
2016,06,04,02,06,18.80
2016,06,04,02,07,18.80
2016,06,04,02,08,18.80
2016,06,04,02,09,18.80
2016,06,04,02,10,18.70
2016,06,04,02,11,18.70
2016,06,04,02,12,18.70
2016,06,04,02,13,18.70
2016,06,04,02,14,18.70
2016,06,04,02,15,18.70
2016,06,04,02,16,18.60
2016,06,04,02,17,18.60
2016,06,04,02,18,18.60
2016,06,04,02,19,18.60
2016,06,04,02,20,18.60
2016,06,04,02,21,18.60
2016,06,04,02,22,18.60
2016,06,04,02,23,18.60
2016,06,04,02,24,18.60
2016,06,04,02,25,18.60
2016,06,04,02,26,18.60
2016,06,04,02,27,18.60
2016,06,04,02,28,18.60
2016,06,04,02,29,18.60
2016,06,04,02,30,18.60
2016,06,04,02,31,18.60
2016,06,04,02,32,18.60
2016,06,04,02,33,18.60
2016,06,04,02,34,18.60
2016,06,04,02,35,18.60
2016,06,04,02,36,18.60
2016,06,04,02,37,18.60
2016,06,04,02,38,18.60
2016,06,04,02,39,18.60
2016,06,04,02,40,18.60
2016,06,04,02,41,18.60
2016,06,04,02,42,18.60
2016,06,04,02,43,18.60
2016,06,04,02,44,18.60
2016,06,04,02,45,18.60
2016,06,04,02,46,18.60
2016,06,04,02,47,18.60
2016,06,04,02,48,18.60
2016,06,04,02,49,18.60
2016,06,04,02,50,18.60
2016,06,04,02,51,18.70
2016,06,04,02,52,18.70
2016,06,04,02,53,18.70
2016,06,04,02,54,18.70
2016,06,04,02,55,18.70
2016,06,04,02,56,18.70
2016,06,04,02,57,18.70
2016,06,04,02,58,18.60
2016,06,04,02,59,18.60
2016,06,04,03,00,18.60
2016,06,04,03,01,18.60
2016,06,04,03,02,18.60
2016,06,04,03,03,18.60
2016,06,04,03,04,18.60
2016,06,04,03,05,18.60
2016,06,04,03,06,18.60
2016,06,04,03,07,18.60
2016,06,04,03,08,18.60
2016,06,04,03,09,18.60
2016,06,04,03,10,18.60
2016,06,04,03,11,18.60
2016,06,04,03,12,18.60
2016,06,04,03,13,18.50
2016,06,04,03,14,18.50
2016,06,04,03,15,18.50
2016,06,04,03,16,18.50
2016,06,04,03,17,18.40
2016,06,04,03,18,18.40
2016,06,04,03,19,18.40
2016,06,04,03,20,18.30
2016,06,04,03,21,18.30
2016,06,04,03,22,18.30
2016,06,04,03,23,18.30
2016,06,04,03,24,18.30
2016,06,04,03,25,18.20
2016,06,04,03,26,18.20
2016,06,04,03,27,18.20
2016,06,04,03,28,18.20
2016,06,04,03,29,18.10
2016,06,04,03,30,18.10
2016,06,04,03,31,18.00
2016,06,04,03,32,18.00
2016,06,04,03,33,18.00
2016,06,04,03,34,17.90
2016,06,04,03,35,17.90
2016,06,04,03,36,17.90
2016,06,04,03,37,17.80
2016,06,04,03,38,17.80
2016,06,04,03,39,17.80
2016,06,04,03,40,17.80
2016,06,04,03,41,17.80
2016,06,04,03,42,17.70
2016,06,04,03,43,17.70
2016,06,04,03,44,17.70
2016,06,04,03,45,17.70
2016,06,04,03,46,17.70
2016,06,04,03,47,17.60
2016,06,04,03,48,17.60
2016,06,04,03,49,17.60
2016,06,04,03,50,17.60
2016,06,04,03,51,17.60
2016,06,04,03,52,17.70
2016,06,04,03,53,17.70
2016,06,04,03,54,17.70
2016,06,04,03,55,17.70
2016,06,04,03,56,17.70
2016,06,04,03,57,17.70
2016,06,04,03,58,17.80
2016,06,04,03,59,17.80
2016,06,04,04,00,17.80
2016,06,04,04,01,17.80
2016,06,04,04,02,17.80
2016,06,04,04,03,17.90
2016,06,04,04,04,17.90
2016,06,04,04,05,17.90
2016,06,04,04,06,17.90
2016,06,04,04,07,18.00
2016,06,04,04,08,18.00
2016,06,04,04,09,18.00
2016,06,04,04,10,18.10
2016,06,04,04,11,18.10
2016,06,04,04,12,18.10
2016,06,04,04,13,18.10
2016,06,04,04,14,18.10
2016,06,04,04,15,18.20
2016,06,04,04,16,18.20
2016,06,04,04,17,18.20
2016,06,04,04,18,18.10
2016,06,04,04,19,18.10
2016,06,04,04,20,18.10
2016,06,04,04,21,18.10
2016,06,04,04,22,18.00
2016,06,04,04,23,18.00
2016,06,04,04,24,18.00
2016,06,04,04,25,17.90
2016,06,04,04,26,17.90
2016,06,04,04,27,17.90
2016,06,04,04,28,17.90
2016,06,04,04,29,17.80
2016,06,04,04,30,17.80
2016,06,04,04,31,17.80
2016,06,04,04,32,17.80
2016,06,04,04,33,17.80
2016,06,04,04,34,17.80
2016,06,04,04,35,17.80
2016,06,04,04,36,17.80
2016,06,04,04,37,17.80
2016,06,04,04,38,17.70
2016,06,04,04,39,17.70
2016,06,04,04,40,17.70
2016,06,04,04,41,17.70
2016,06,04,04,42,17.70
2016,06,04,04,43,17.60
2016,06,04,04,44,17.60
2016,06,04,04,45,17.50
2016,06,04,04,46,17.50
2016,06,04,04,47,17.40
2016,06,04,04,48,17.40
2016,06,04,04,49,17.30
2016,06,04,04,50,17.30
2016,06,04,04,51,17.20
2016,06,04,04,52,17.20
2016,06,04,04,53,17.10
2016,06,04,04,54,17.10
2016,06,04,04,55,17.00
2016,06,04,04,56,16.90
2016,06,04,04,57,16.90
2016,06,04,04,58,16.90
2016,06,04,04,59,16.80
2016,06,04,05,00,16.80
2016,06,04,05,01,16.80
2016,06,04,05,02,16.70
2016,06,04,05,03,16.70
2016,06,04,05,04,16.70
2016,06,04,05,05,16.60
2016,06,04,05,06,16.60
2016,06,04,05,07,16.50
2016,06,04,05,08,16.50
2016,06,04,05,09,16.40
2016,06,04,05,10,16.40
2016,06,04,05,11,16.40
2016,06,04,05,12,16.30
2016,06,04,05,13,16.30
2016,06,04,05,14,16.30
2016,06,04,05,15,16.30
2016,06,04,05,16,16.30
2016,06,04,05,17,16.30
2016,06,04,05,18,16.30
2016,06,04,05,19,16.20
2016,06,04,05,20,16.20
2016,06,04,05,21,16.20
2016,06,04,05,22,16.20
2016,06,04,05,23,16.20
2016,06,04,05,24,16.10
2016,06,04,05,25,16.10
2016,06,04,05,26,16.10
2016,06,04,05,27,16.10
2016,06,04,05,28,16.10
2016,06,04,05,29,16.00
2016,06,04,05,30,16.00
2016,06,04,05,31,16.00
2016,06,04,05,32,15.90
2016,06,04,05,33,15.90
2016,06,04,05,34,15.90
2016,06,04,05,35,15.90
2016,06,04,05,36,15.90
2016,06,04,05,37,15.90
2016,06,04,05,38,15.90
2016,06,04,05,39,15.90
2016,06,04,05,40,15.80
2016,06,04,05,41,15.80
2016,06,04,05,42,15.80
2016,06,04,05,43,15.80
2016,06,04,05,44,15.80
2016,06,04,05,45,15.80
2016,06,04,05,46,15.80
2016,06,04,05,47,15.80
2016,06,04,05,48,15.80
2016,06,04,05,49,15.80
2016,06,04,05,50,15.80
2016,06,04,05,51,15.80
2016,06,04,05,52,15.80
2016,06,04,05,53,15.80
2016,06,04,05,54,15.80
2016,06,04,05,55,15.80
2016,06,04,05,56,15.80
2016,06,04,05,57,15.80
2016,06,04,05,58,15.80
2016,06,04,05,59,15.80
2016,06,04,06,00,15.80
2016,06,04,06,01,15.80
2016,06,04,06,02,15.80
2016,06,04,06,03,15.80
2016,06,04,06,04,15.80
2016,06,04,06,05,15.80
2016,06,04,06,06,15.80
2016,06,04,06,07,15.80
2016,06,04,06,08,15.80
2016,06,04,06,09,15.90
2016,06,04,06,10,15.90
2016,06,04,06,11,15.90
2016,06,04,06,12,15.80
2016,06,04,06,13,15.90
2016,06,04,06,14,15.90
2016,06,04,06,15,15.90
2016,06,04,06,16,15.90
2016,06,04,06,17,15.90
2016,06,04,06,18,15.90
2016,06,04,06,19,15.90
2016,06,04,06,20,15.90
2016,06,04,06,21,15.90
2016,06,04,06,22,15.90
2016,06,04,06,23,15.90
2016,06,04,06,24,15.90
2016,06,04,06,25,15.90
2016,06,04,06,26,15.90
2016,06,04,06,27,16.00
2016,06,04,06,28,16.00
2016,06,04,06,29,16.00
2016,06,04,06,30,16.00
2016,06,04,06,31,16.00
2016,06,04,06,32,16.00
2016,06,04,06,33,16.00
2016,06,04,06,34,16.10
2016,06,04,06,35,16.10
2016,06,04,06,36,16.10
2016,06,04,06,37,16.10
2016,06,04,06,38,16.10
2016,06,04,06,39,16.10
2016,06,04,06,40,16.10
2016,06,04,06,41,16.10
2016,06,04,06,42,16.10
2016,06,04,06,43,16.10
2016,06,04,06,44,16.20
2016,06,04,06,45,16.20
2016,06,04,06,46,16.20
2016,06,04,06,47,16.20
2016,06,04,06,48,16.20
2016,06,04,06,49,16.20
2016,06,04,06,50,16.30
2016,06,04,06,51,16.30
2016,06,04,06,52,16.40
2016,06,04,06,53,16.50
2016,06,04,06,54,16.60
2016,06,04,06,55,16.70
2016,06,04,06,56,16.80
2016,06,04,06,57,16.90
2016,06,04,06,58,16.90
2016,06,04,06,59,17.00
2016,06,04,07,00,17.10
2016,06,04,07,01,17.20
2016,06,04,07,02,17.30
2016,06,04,07,03,17.40
2016,06,04,07,04,17.50
2016,06,04,07,05,17.60
2016,06,04,07,06,17.70
2016,06,04,07,07,17.70
2016,06,04,07,08,17.80
2016,06,04,07,09,17.90
2016,06,04,07,10,18.00
2016,06,04,07,11,18.10
2016,06,04,07,12,18.20
2016,06,04,07,13,18.20
2016,06,04,07,14,18.30
2016,06,04,07,15,18.40
2016,06,04,07,16,18.40
2016,06,04,07,17,18.50
2016,06,04,07,18,18.60
2016,06,04,07,19,18.70
2016,06,04,07,20,18.70
2016,06,04,07,21,18.80
2016,06,04,07,22,18.80
2016,06,04,07,23,18.80
2016,06,04,07,24,18.80
2016,06,04,07,25,18.90
2016,06,04,07,26,18.90
2016,06,04,07,27,18.90
2016,06,04,07,28,19.00
2016,06,04,07,29,19.00
2016,06,04,07,30,19.10
2016,06,04,07,31,19.10
2016,06,04,07,32,19.10
2016,06,04,07,33,19.10
2016,06,04,07,34,19.10
2016,06,04,07,35,19.20
2016,06,04,07,36,19.20
2016,06,04,07,37,19.20
2016,06,04,07,38,19.20
2016,06,04,07,39,19.20
2016,06,04,07,40,19.20
2016,06,04,07,41,19.20
2016,06,04,07,42,19.20
2016,06,04,07,43,19.30
2016,06,04,07,44,19.30
2016,06,04,07,45,19.30
2016,06,04,07,46,19.30
2016,06,04,07,47,19.30
2016,06,04,07,48,19.30
2016,06,04,07,49,19.30
2016,06,04,07,50,19.40
2016,06,04,07,51,19.40
2016,06,04,07,52,19.40
2016,06,04,07,53,19.40
2016,06,04,07,54,19.40
2016,06,04,07,55,19.40
2016,06,04,07,56,19.40
2016,06,04,07,57,19.50
2016,06,04,07,58,19.50
2016,06,04,07,59,19.50
2016,06,04,08,00,19.50
2016,06,04,08,01,19.60
2016,06,04,08,02,19.60
2016,06,04,08,03,19.60
2016,06,04,08,04,19.60
2016,06,04,08,05,19.60
2016,06,04,08,06,19.60
2016,06,04,08,07,19.60
2016,06,04,08,08,19.70
2016,06,04,08,09,19.70
2016,06,04,08,10,19.70
2016,06,04,08,11,19.70
2016,06,04,08,12,19.70
2016,06,04,08,13,19.80
2016,06,04,08,14,19.90
2016,06,04,08,15,19.90
2016,06,04,08,16,19.90
2016,06,04,08,17,19.90
2016,06,04,08,18,19.90
2016,06,04,08,19,20.00
2016,06,04,08,20,20.00
2016,06,04,08,21,20.00
2016,06,04,08,22,20.10
2016,06,04,08,23,20.10
2016,06,04,08,24,20.10
2016,06,04,08,25,20.20
2016,06,04,08,26,20.20
2016,06,04,08,27,20.20
2016,06,04,08,28,20.20
2016,06,04,08,29,20.30
2016,06,04,08,30,20.30
2016,06,04,08,31,20.30
2016,06,04,08,32,20.40
2016,06,04,08,33,20.40
2016,06,04,08,34,20.40
2016,06,04,08,35,20.40
2016,06,04,08,36,20.50
2016,06,04,08,37,20.50
2016,06,04,08,38,20.50
2016,06,04,08,39,20.60
2016,06,04,08,40,20.60
2016,06,04,08,41,20.60
2016,06,04,08,42,20.60
2016,06,04,08,43,20.60
2016,06,04,08,44,20.60
2016,06,04,08,45,20.60
2016,06,04,08,46,20.60
2016,06,04,08,47,20.60
2016,06,04,08,48,20.60
2016,06,04,08,49,20.60
2016,06,04,08,50,20.60
2016,06,04,08,51,20.60
2016,06,04,08,52,20.60
2016,06,04,08,53,20.70
2016,06,04,08,54,20.70
2016,06,04,08,55,20.80
2016,06,04,08,56,20.80
2016,06,04,08,57,20.90
2016,06,04,08,58,20.90
2016,06,04,08,59,21.00
2016,06,04,09,00,21.00
2016,06,04,09,01,21.10
2016,06,04,09,02,21.10
2016,06,04,09,03,21.20
2016,06,04,09,04,21.10
2016,06,04,09,05,21.10
2016,06,04,09,06,21.10
2016,06,04,09,07,21.00
2016,06,04,09,08,21.00
2016,06,04,09,09,20.90
2016,06,04,09,10,20.90
2016,06,04,09,11,20.90
2016,06,04,09,12,20.90
2016,06,04,09,13,20.90
2016,06,04,09,14,21.00
2016,06,04,09,15,21.10
2016,06,04,09,16,21.10
2016,06,04,09,17,21.20
2016,06,04,09,18,21.20
2016,06,04,09,19,21.30
2016,06,04,09,20,21.30
2016,06,04,09,21,21.30
2016,06,04,09,22,21.30
2016,06,04,09,23,21.30
2016,06,04,09,24,21.30
2016,06,04,09,25,21.30
2016,06,04,09,26,21.30
2016,06,04,09,27,21.30
2016,06,04,09,28,21.30
2016,06,04,09,29,21.40
2016,06,04,09,30,21.40
2016,06,04,09,31,21.30
2016,06,04,09,32,21.30
2016,06,04,09,33,21.30
2016,06,04,09,34,21.30
2016,06,04,09,35,21.30
2016,06,04,09,36,21.40
2016,06,04,09,37,21.40
2016,06,04,09,38,21.40
2016,06,04,09,39,21.40
2016,06,04,09,40,21.50
2016,06,04,09,41,21.50
2016,06,04,09,42,21.50
2016,06,04,09,43,21.60
2016,06,04,09,44,21.60
2016,06,04,09,45,21.60
2016,06,04,09,46,21.60
2016,06,04,09,47,21.60
2016,06,04,09,48,21.60
2016,06,04,09,49,21.60
2016,06,04,09,50,21.60
2016,06,04,09,51,21.60
2016,06,04,09,52,21.70
2016,06,04,09,53,21.70
2016,06,04,09,54,21.70
2016,06,04,09,55,21.80
2016,06,04,09,56,21.80
2016,06,04,09,57,21.80
2016,06,04,09,58,21.80
2016,06,04,09,59,21.80
2016,06,04,10,00,21.80
2016,06,04,10,01,21.80
2016,06,04,10,02,21.80
2016,06,04,10,03,21.80
2016,06,04,10,04,21.80
2016,06,04,10,05,21.80
2016,06,04,10,06,21.90
2016,06,04,10,07,21.90
2016,06,04,10,08,21.90
2016,06,04,10,09,21.90
2016,06,04,10,10,22.00
2016,06,04,10,11,22.00
2016,06,04,10,12,22.00
2016,06,04,10,13,22.10
2016,06,04,10,14,22.10
2016,06,04,10,15,22.10
2016,06,04,10,16,22.10
2016,06,04,10,17,22.10
2016,06,04,10,18,22.00
2016,06,04,10,19,22.00
2016,06,04,10,20,22.00
2016,06,04,10,21,22.00
2016,06,04,10,22,22.00
2016,06,04,10,23,22.00
2016,06,04,10,24,22.10
2016,06,04,10,25,22.10
2016,06,04,10,26,22.10
2016,06,04,10,27,22.10
2016,06,04,10,28,22.10
2016,06,04,10,29,22.20
2016,06,04,10,30,22.20
2016,06,04,10,31,22.20
2016,06,04,10,32,22.20
2016,06,04,10,33,22.30
2016,06,04,10,34,22.30
2016,06,04,10,35,22.40
2016,06,04,10,36,22.40
2016,06,04,10,37,22.40
2016,06,04,10,38,22.40
2016,06,04,10,39,22.40
2016,06,04,10,40,22.50
2016,06,04,10,41,22.50
2016,06,04,10,42,22.50
2016,06,04,10,43,22.60
2016,06,04,10,44,22.60
2016,06,04,10,45,22.60
2016,06,04,10,46,22.70
2016,06,04,10,47,22.70
2016,06,04,10,48,22.70
2016,06,04,10,49,22.80
2016,06,04,10,50,22.80
2016,06,04,10,51,22.80
2016,06,04,10,52,22.90
2016,06,04,10,53,23.00
2016,06,04,10,54,23.00
2016,06,04,10,55,23.10
2016,06,04,10,56,23.10
2016,06,04,10,57,23.10
2016,06,04,10,58,23.10
2016,06,04,10,59,23.10
2016,06,04,11,00,23.10
2016,06,04,11,01,23.20
2016,06,04,11,02,23.20
2016,06,04,11,03,23.20
2016,06,04,11,04,23.20
2016,06,04,11,05,23.20
2016,06,04,11,06,23.20
2016,06,04,11,07,23.30
2016,06,04,11,08,23.30
2016,06,04,11,09,23.30
2016,06,04,11,10,23.40
2016,06,04,11,11,23.40
2016,06,04,11,12,23.50
2016,06,04,11,13,23.50
2016,06,04,11,14,23.60
2016,06,04,11,15,23.60
2016,06,04,11,16,23.70
2016,06,04,11,17,23.70
2016,06,04,11,18,23.70
2016,06,04,11,19,23.80
2016,06,04,11,20,23.80
2016,06,04,11,21,23.80
2016,06,04,11,22,23.80
2016,06,04,11,23,23.80
2016,06,04,11,24,23.80
2016,06,04,11,25,23.80
2016,06,04,11,26,23.80
2016,06,04,11,27,23.80
2016,06,04,11,28,23.80
2016,06,04,11,29,23.80
2016,06,04,11,30,23.80
2016,06,04,11,31,23.90
2016,06,04,11,32,23.90
2016,06,04,11,33,23.90
2016,06,04,11,34,23.90
2016,06,04,11,35,23.90
2016,06,04,11,36,23.90
2016,06,04,11,37,23.90
2016,06,04,11,38,23.90
2016,06,04,11,39,24.00
2016,06,04,11,40,24.00
2016,06,04,11,41,24.10
2016,06,04,11,42,24.10
2016,06,04,11,43,24.10
2016,06,04,11,44,24.10
2016,06,04,11,45,24.20
2016,06,04,11,46,24.20
2016,06,04,11,47,24.30
2016,06,04,11,48,24.30
2016,06,04,11,49,24.40
2016,06,04,11,50,24.40
2016,06,04,11,51,24.40
2016,06,04,11,52,24.50
2016,06,04,11,53,24.50
2016,06,04,11,54,24.60
2016,06,04,11,55,24.60
2016,06,04,11,56,24.50
2016,06,04,11,57,24.50
2016,06,04,11,58,24.60
2016,06,04,11,59,24.60
2016,06,04,12,00,24.50
2016,06,04,12,01,24.60
2016,06,04,12,02,24.60
2016,06,04,12,03,24.60
2016,06,04,12,04,24.60
2016,06,04,12,05,24.70
2016,06,04,12,06,24.70
2016,06,04,12,07,24.70
2016,06,04,12,08,24.80
2016,06,04,12,09,24.80
2016,06,04,12,10,24.90
2016,06,04,12,11,24.90
2016,06,04,12,12,24.90
2016,06,04,12,13,24.90
2016,06,04,12,14,24.90
2016,06,04,12,15,24.80
2016,06,04,12,16,24.90
2016,06,04,12,17,24.80
2016,06,04,12,18,24.80
2016,06,04,12,19,24.80
2016,06,04,12,20,24.80
2016,06,04,12,21,24.80
2016,06,04,12,22,24.80
2016,06,04,12,23,24.90
2016,06,04,12,24,24.90
2016,06,04,12,25,24.90
2016,06,04,12,26,24.90
2016,06,04,12,27,24.90
2016,06,04,12,28,24.90
2016,06,04,12,29,24.90
2016,06,04,12,30,25.00
2016,06,04,12,31,25.00
2016,06,04,12,32,25.10
2016,06,04,12,33,25.10
2016,06,04,12,34,25.10
2016,06,04,12,35,25.10
2016,06,04,12,36,25.10
2016,06,04,12,37,25.20
2016,06,04,12,38,25.20
2016,06,04,12,39,25.30
2016,06,04,12,40,25.30
2016,06,04,12,41,25.30
2016,06,04,12,42,25.20
2016,06,04,12,43,25.30
2016,06,04,12,44,25.20
2016,06,04,12,45,25.20
2016,06,04,12,46,25.20
2016,06,04,12,47,25.20
2016,06,04,12,48,25.20
2016,06,04,12,49,25.30
2016,06,04,12,50,25.30
2016,06,04,12,51,25.40
2016,06,04,12,52,25.40
2016,06,04,12,53,25.50
2016,06,04,12,54,25.50
2016,06,04,12,55,25.60
2016,06,04,12,56,25.60
2016,06,04,12,57,25.60
2016,06,04,12,58,25.60
2016,06,04,12,59,25.60
2016,06,04,13,00,25.60
2016,06,04,13,01,25.60
2016,06,04,13,02,25.60
2016,06,04,13,03,25.60
2016,06,04,13,04,25.60
2016,06,04,13,05,25.60
2016,06,04,13,06,25.60
2016,06,04,13,07,25.50
2016,06,04,13,08,25.50
2016,06,04,13,09,25.40
2016,06,04,13,10,25.40
2016,06,04,13,11,25.50
2016,06,04,13,12,25.50
2016,06,04,13,13,25.60
2016,06,04,13,14,25.60
2016,06,04,13,15,25.70
2016,06,04,13,16,25.70
2016,06,04,13,17,25.80
2016,06,04,13,18,25.80
2016,06,04,13,19,25.80
2016,06,04,13,20,25.90
2016,06,04,13,21,25.90
2016,06,04,13,22,25.90
2016,06,04,13,23,25.90
2016,06,04,13,24,25.90
2016,06,04,13,25,25.90
2016,06,04,13,26,25.90
2016,06,04,13,27,25.90
2016,06,04,13,28,25.90
2016,06,04,13,29,25.80
2016,06,04,13,30,25.90
2016,06,04,13,31,25.90
2016,06,04,13,32,25.90
2016,06,04,13,33,25.90
2016,06,04,13,34,25.90
2016,06,04,13,35,25.90
2016,06,04,13,36,26.00
2016,06,04,13,37,26.00
2016,06,04,13,38,26.10
2016,06,04,13,39,26.10
2016,06,04,13,40,26.10
2016,06,04,13,41,26.00
2016,06,04,13,42,26.00
2016,06,04,13,43,26.00
2016,06,04,13,44,26.00
2016,06,04,13,45,26.00
2016,06,04,13,46,26.00
2016,06,04,13,47,26.00
2016,06,04,13,48,26.10
2016,06,04,13,49,26.10
2016,06,04,13,50,26.10
2016,06,04,13,51,26.10
2016,06,04,13,52,26.10
2016,06,04,13,53,26.10
2016,06,04,13,54,26.20
2016,06,04,13,55,26.20
2016,06,04,13,56,26.20
2016,06,04,13,57,26.20
2016,06,04,13,58,26.30
2016,06,04,13,59,26.30
2016,06,04,14,00,26.30
2016,06,04,14,01,26.40
2016,06,04,14,02,26.40
2016,06,04,14,03,26.50
2016,06,04,14,04,26.60
2016,06,04,14,05,26.60
2016,06,04,14,06,26.70
2016,06,04,14,07,26.70
2016,06,04,14,08,26.70
2016,06,04,14,09,26.70
2016,06,04,14,10,26.80
2016,06,04,14,11,26.80
2016,06,04,14,12,26.80
2016,06,04,14,13,26.90
2016,06,04,14,14,26.90
2016,06,04,14,15,26.90
2016,06,04,14,16,27.00
2016,06,04,14,17,27.00
2016,06,04,14,18,27.00
2016,06,04,14,19,27.00
2016,06,04,14,20,26.90
2016,06,04,14,21,26.90
2016,06,04,14,22,26.90
2016,06,04,14,23,26.80
2016,06,04,14,24,26.80
2016,06,04,14,25,26.80
2016,06,04,14,26,26.80
2016,06,04,14,27,26.80
2016,06,04,14,28,26.80
2016,06,04,14,29,26.80
2016,06,04,14,30,26.80
2016,06,04,14,31,26.80
2016,06,04,14,32,26.80
2016,06,04,14,33,26.80
2016,06,04,14,34,26.80
2016,06,04,14,35,26.80
2016,06,04,14,36,26.80
2016,06,04,14,37,26.70
2016,06,04,14,38,26.70
2016,06,04,14,39,26.70
2016,06,04,14,40,26.70
2016,06,04,14,41,26.70
2016,06,04,14,42,26.70
2016,06,04,14,43,26.70
2016,06,04,14,44,26.60
2016,06,04,14,45,26.60
2016,06,04,14,46,26.60
2016,06,04,14,47,26.60
2016,06,04,14,48,26.70
2016,06,04,14,49,26.70
2016,06,04,14,50,26.80
2016,06,04,14,51,26.80
2016,06,04,14,52,26.80
2016,06,04,14,53,26.80
2016,06,04,14,54,26.80
2016,06,04,14,55,26.80
2016,06,04,14,56,26.90
2016,06,04,14,57,26.90
2016,06,04,14,58,26.90
2016,06,04,14,59,26.90
2016,06,04,15,00,26.90
2016,06,04,15,01,26.90
2016,06,04,15,02,27.00
2016,06,04,15,03,27.00
2016,06,04,15,04,27.10
2016,06,04,15,05,27.10
2016,06,04,15,06,27.10
2016,06,04,15,07,27.20
2016,06,04,15,08,27.20
2016,06,04,15,09,27.20
2016,06,04,15,10,27.30
2016,06,04,15,11,27.30
2016,06,04,15,12,27.30
2016,06,04,15,13,27.30
2016,06,04,15,14,27.40
2016,06,04,15,15,27.40
2016,06,04,15,16,27.40
2016,06,04,15,17,27.40
2016,06,04,15,18,27.40
2016,06,04,15,19,27.50
2016,06,04,15,20,27.50
2016,06,04,15,21,27.60
2016,06,04,15,22,27.60
2016,06,04,15,23,27.60
2016,06,04,15,24,27.70
2016,06,04,15,25,27.70
2016,06,04,15,26,27.80
2016,06,04,15,27,27.90
2016,06,04,15,28,27.90
2016,06,04,15,29,28.00
2016,06,04,15,30,28.00
2016,06,04,15,31,28.00
2016,06,04,15,32,28.10
2016,06,04,15,33,28.10
2016,06,04,15,34,28.10
2016,06,04,15,35,28.20
2016,06,04,15,36,28.20
2016,06,04,15,37,28.30
2016,06,04,15,38,28.40
2016,06,04,15,39,28.40
2016,06,04,15,40,28.50
2016,06,04,15,41,28.60
2016,06,04,15,42,28.60
2016,06,04,15,43,28.60
2016,06,04,15,44,28.60
2016,06,04,15,45,28.60
2016,06,04,15,46,28.60
2016,06,04,15,47,28.60
2016,06,04,15,48,28.60
2016,06,04,15,49,28.60
2016,06,04,15,50,28.50
2016,06,04,15,51,28.40
2016,06,04,15,52,28.40
2016,06,04,15,53,28.40
2016,06,04,15,54,28.40
2016,06,04,15,55,28.40
2016,06,04,15,56,28.40
2016,06,04,15,57,28.50
2016,06,04,15,58,28.50
2016,06,04,15,59,28.50
2016,06,04,16,00,28.50
2016,06,04,16,01,28.60
2016,06,04,16,02,28.60
2016,06,04,16,03,28.60
2016,06,04,16,04,28.60
2016,06,04,16,05,28.60
2016,06,04,16,06,28.70
2016,06,04,16,07,28.70
2016,06,04,16,08,28.60
2016,06,04,16,09,28.50
2016,06,04,16,10,28.50
2016,06,04,16,11,28.40
2016,06,04,16,12,28.40
2016,06,04,16,13,28.40
2016,06,04,16,14,28.40
2016,06,04,16,15,28.40
2016,06,04,16,16,28.40
2016,06,04,16,17,28.30
2016,06,04,16,18,28.30
2016,06,04,16,19,28.30
2016,06,04,16,20,28.20
2016,06,04,16,21,28.20
2016,06,04,16,22,28.20
2016,06,04,16,23,28.30
2016,06,04,16,24,28.30
2016,06,04,16,25,28.30
2016,06,04,16,26,28.20
2016,06,04,16,27,28.20
2016,06,04,16,28,28.20
2016,06,04,16,29,28.20
2016,06,04,16,30,28.20
2016,06,04,16,31,28.20
2016,06,04,16,32,28.20
2016,06,04,16,33,28.20
2016,06,04,16,34,28.20
2016,06,04,16,35,28.20
2016,06,04,16,36,28.30
2016,06,04,16,37,28.30
2016,06,04,16,38,28.30
2016,06,04,16,39,28.30
2016,06,04,16,40,28.30
2016,06,04,16,41,28.40
2016,06,04,16,42,28.40
2016,06,04,16,43,28.50
2016,06,04,16,44,28.50
2016,06,04,16,45,28.60
2016,06,04,16,46,28.60
2016,06,04,16,47,28.60
2016,06,04,16,48,28.60
2016,06,04,16,49,28.70
2016,06,04,16,50,28.70
2016,06,04,16,51,28.70
2016,06,04,16,52,28.70
2016,06,04,16,53,28.70
2016,06,04,16,54,28.70
2016,06,04,16,55,28.80
2016,06,04,16,56,28.70
2016,06,04,16,57,28.70
2016,06,04,16,58,28.70
2016,06,04,16,59,28.70
2016,06,04,17,00,28.70
2016,06,04,17,01,28.70
2016,06,04,17,02,28.70
2016,06,04,17,03,28.80
2016,06,04,17,04,28.80
2016,06,04,17,05,28.80
2016,06,04,17,06,28.90
2016,06,04,17,07,28.90
2016,06,04,17,08,28.90
2016,06,04,17,09,28.90
2016,06,04,17,10,28.90
2016,06,04,17,11,28.90
2016,06,04,17,12,28.90
2016,06,04,17,13,28.90
2016,06,04,17,14,28.90
2016,06,04,17,15,28.90
2016,06,04,17,16,28.90
2016,06,04,17,17,28.90
2016,06,04,17,18,29.00
2016,06,04,17,19,29.00